Regional Weather Roundup
Issued by NWS Newport/Morehead, NC

Current Version | Previous Version | Graphics & Text | Print | Product List | Glossary On
Versions: 1 2 3 4 5 6 7 8 9 10 11 12 13 14 15 16 17 18 19 20 21 22 23 24 25 26 27 28 29 30 31 32 33 34 35 36 37 38 39 40 41 42 43 44 45 46 47 48 49 50
066 ASUS42 KMHX 171213 RWRMHX WEATHER ROUNDUP FOR EASTERN NORTH CAROLINA NATIONAL WEATHER SERVICE NEWPORT/MOREHEAD CITY NC 700 AM EST TUE JAN 17 2017 NOTE: "FAIR" INDICATES FEW OR NO CLOUDS BELOW 12,000 FEET WITH NO SIGNIFICANT WEATHER AND/OR OBSTRUCTIONS TO VISIBILITY NCZ015>017-031-032-045>047-102-103-171300- NORTH COAST CITY SKY/WX TMP DP RH WIND PRES REMARKS EDENTON CLOUDY 46 41 82 CALM 30.27R ELIZABETH CITY CLOUDY 43 41 93 CALM 30.27S KITTY HAWK NOT AVBL MANTEO CLOUDY 42 42 100 CALM 30.27S $$ NCZ045>047-081-094-103-104-171300- CENTRAL COAST CITY SKY/WX TMP DP RH WIND PRES REMARKS FRISCO CLOUDY 48 44 86 CALM 30.26S $$ NCZ095-097-098-100-101-171300- SOUTHERN COAST CITY SKY/WX TMP DP RH WIND PRES REMARKS BEAUFORT MOCLDY 46 43 89 NE3 30.26S CEDAR ISLAND NOT AVBL JACKSONVILLE CLOUDY 47 46 97 E3 30.25S PINEY ISLAND CLOUDY N/A N/A N/A N3 30.26R WILMINGTON CLOUDY 48 47 96 CALM 30.26R $$ NCZ011>013-027>030-043-044-078>080-089-090>093-098-171300- COASTAL PLAIN CITY SKY/WX TMP DP RH WIND PRES REMARKS AHOSKIE N/A 44 41 90 CALM 30.27R CLINTON CLOUDY 47 46 97 CALM 30.27S ELIZABETHTOWN CLOUDY 49 48 95 CALM 30.26S GOLDSBORO CLOUDY 45 45 100 CALM 30.25R GREENVILLE NOT AVBL HAVELOCK MOCLDY 46 43 89 CALM 30.27R KENANSVILLE CLEAR 43 43 100 CALM 30.27R KINSTON CLOUDY 45 43 93 CALM 30.28R NEW BERN MOCLDY 43 41 93 CALM 30.28R RICHLANDS MOCLDY 45 44 97 CALM 30.27R ROCKY MOUNT CLOUDY 48 46 93 CALM 30.27R WASHINGTON N/A 45 41 85 CALM 30.28R WHITEVILLE CLOUDY 50 49 95 CALM 30.26R FOG $$ AMZ130-135-150-152-154-156-158-170-250-252-270-ANZ085-086-088-633-658-670-171300- MARINE OBSERVATIONS STATION/POSITION TIME TEMP WIND PRES WAVE SWELL AIR SEA DIR/SP/G HT/PER HT/PER (UTC) (F) (DEG/KT/KT) (MB) (FT/S) (FT/S) CHESAPEAKE LIGHT NOT AVBL 64 E VA BEACH 1150 53 55 10/ 2/ 4 1024.0 2/10 2/10 DUCK 1148 44 44 330/ 2/ 3 1024.5 2 E DUCK 1130 44 N/A 2/ 8 OREGON INLET 1136 44 48 360/ 3/ 4 1024.5 13E OREGON INLT NOT AVBL HATTERAS CG 1148 52 CALM / 2 1024.3 DIAMOND BUOY 1150 56 72 10/ 10/ 12 1024.4 2/ 8 2/ 8 CAPE LOOKOUT 1100 49 10/ 3/ 3 1024.0 BEAUFORT LAB 1148 49 10/ 4/ 5 1023.5 30 SE NEW RVR IN 1108 59 61 80/ 6/ 8 1024.2 30 SE NEW RVR IN 1143 62 N/A 3/ 8 27 SE WRIGHTSVLE 1108 64 68 110/ 8/ 10 1023.7 5 SE WRIGHTSVLE 1108 52 30/ 10/ 12 1024.0 225 S CAPE HAT 1150 71 72 190/ 14/ 16 1025.4 3/ 8 3/ 8 41 SE CHARLESTON 1050 70 70 180/ 4/ 4 1023.7 3/ 9 3/ 9 $$

USA.gov is the U.S. government's official web portal to all federal, state and local government web resources and services.